Probability
0 0 0 0 0 0 0 0 0 0 0 0 0 0 0 0 0 0 0 0 0 0 0 0 0 0 0 0 0 0 0 0 0 0 0 0 0 0 0 0 0 0 0
0 0 0 0 0 0 0 0 0 0 0 0 0 0 0 0 0 0 0 0 0 0 0 0 0 0 0 0 0 0 0 0 0 0 0 0 0 0 0 0 0 0 0
0 0 0 0 0 0 0 0 0 0 0 0 0 0 0 0 0 0 0 0 0 0 0 0 0 0 0 0 0 0 0 0 0 0 0 0 0 0 0 0 0 0 0
0 0 0 0 0 0 0 0 0 0 0 0 0 0 0 0 0 0 0 0 0 0 0 0 0 0 0 0 0 0 0 0 0 0 0 0 0 0 0 0 0 0 0
0 0 0 0 0 0 0 0 0 0 0 0 0 0 0 0 0 0 0 0 0 0 0 0 0 0 0 0 0 0 0 0 0 0 0 0 0 0 0 0 0 0 0
0 0 0 0 0 0 0 0 0 0 0 0 0 0 0 0 0 0 0 0 0 0 0 0 0 0 0 0 0 0 0 0 0 0 0 0 0 0 0 0 0 0 0
0 0 0 0 0 0 0 0 0 0 0 0 0 0 0 0 0 0 0 0 0 0 0 0 0 0 0 0 0 0 0 0 0 0 0 0 0 0 0 0 0 0 0
0 0 0 0 0 0 0 0 0 0 0 0 0 0 0 0 0 0 0 0 0 0 0 0 0 0 0 0 0 0 0 0 0 0 0 0 0 0 0 0 0 0 0
0 0 0 0 0 0 0 0 0 0 0 0 0 0 0 0 0 0 0 0 0 0 0 0 0 0 0 0 0 0 0 0 0 0 0 0 0 0 0 0 0 0 0
0 0 0 0 0 0 0 0 0 0 0 0 0 0 0 0 0 0 0 0 0 0 0 0 0 0 0 0 0 0 0 0 0 0 0 0 0 0 0 0 0 0 0
0 0 0 0 0 0 0 0 0 0 0 0 0 0 0 0 0 0 0 0 0 0 0 0 0 0 0 0 0 0 0 0 0 0 0 0 0 0 0 0 0 0 0
0 0 0 0 0 0 0 0 0 0 0 0 0 0 0 0 0 0 0 0 0 0 0 0 0 0 0 0 0 0 0 0 0 0 0 0 0 0 0 0 0 0 0
0 0 0 0 0 0 0 0 0 0 0 0 0 0 0 0 0 0 0 0 0 0 0 0 0 0 0 0 0 0 0 0 0 0 0 0 0 0 0 0 0 0 0
0 0 0 0 0 0 0 0 0 0 0 0 0 0 0 0 0 0 0 0 0 0 0 0 0 0 0 0 0 0 0 0 0 0 0 0 0 0 0 0 0 0 0
0 0 0 0 0 0 0 0 0 0 0 0 0 0 0 0 0 0 0 0 0 0 0 0 0 0 0 0 0 0 0 0 0 0 0 0 0 0 0 0 0 0 0
0 0 0 0 0 0 0 0 0 0 0 0 0 0 0 0 0 0 0 0 0 0 0 0 0 0 0 0 0 0 0 0 0 0 0 0 0 0 0 0 0 0 0
0 0 0 0 0 0 0 0 0 0 0 0 0 0 0 0 0 0 0 0 0 0 0 0 0 0 0 0 0 0 0 0 0 0 0 0 0 0 0 0 0 0 0
0 0 0 0 0 0 0 0 0 0 0 0 0 0 0 0 0 0 0 0 0 0 0 0 0 0 0 0 0 0 0 0 0 0 0 0 0 0 0 0 0 0 0
0 0 0 0 0 0 0 0 0 0 0 0 0 0 0 0 0 0 0 0 0 0 0 0 0 0 0 0 0 0 0 0 0 0 0 0 0 0 0 0 0 0 0
0 0 0 0 0 0 0 0 0 0 0 0 0 0 0 0 0 0 0 0 0 0 0 0 0 0 0 0 0 0 0 0 0 0 0 0 0 0 0 0 0 0 0
0 0 0 0 0 0 0 0 0 0 0 0 0 0 0 0 0 0 0 0 0 0 0 0 0 0 0 0 0 0 0 0 0 0 0 0 0 0 0 0 0 0 0
0 0 0 0 0 0 0 0 0 0 0 0 0 0 0 0 0 0 0 0 0 0 0 0 0 0 0 0 0 0 0 0 0 0 0 0 0 0 0 0 0 0 0
0 0 0 0 0 0 0 0 0 0 0 0 0 0 0 0 0 0 0 0 0 0 0 0 0 0 0 0 0 0 0 0 0 0 0 0 0 0 0 0 0 0 0
0 0 0 0 0 0 0 0 0 0 0 0 0 0 0 0 0 0 0 0 0 0 0 0 0 0 0 0 0 0 0 0 0 0 0 0 0 0 0 0 0 0 0
0 0 0 0 0 0 0 0 0 0 0 0 0 0 0 0 0 0 0 0 0 0 0 0 0 0 0 0 0 0 0 0 0 0 0 0 0 0 0 0 0 0 0
0 0 0 0 0 0 0 0 0 0 0 0 0 0 0 0 0 0 0 0 0 0 0 0 0 0 0 0 0 0 0 0 0 0 0 0 0 0 0 0 0 0 0
Height
5643 5643 5644 5644 5644 5645 5645 5646 5646 5646 5645 5646 5646 5646 5646 5646 5647 5647 5648 5648 5648 5649 5649 5649 5650 5650 5651 5651 5651 5651 5652 5652 5654 5656 5655 5655 5655 5655 5656 5656 5656 5656 5655
5632 5632 5633 5633 5633 5634 5634 5634 5634 5634 5634 5633 5633 5634 5634 5634 5634 5634 5635 5635 5636 5636 5636 5636 5636 5636 5637 5637 5637 5637 5638 5638 5639 5641 5641 5641 5641 5641 5642 5642 5642 5641 5641
5621 5621 5622 5622 5622 5623 5623 5622 5622 5622 5622 5621 5621 5621 5621 5621 5621 5621 5622 5622 5622 5622 5622 5622 5622 5622 5622 5622 5622 5623 5623 5624 5624 5625 5627 5626 5626 5627 5627 5627 5627 5627 5626
5611 5611 5611 5611 5611 5611 5611 5611 5610 5610 5610 5609 5609 5608 5608 5608 5608 5608 5608 5609 5609 5609 5609 5609 5608 5608 5608 5608 5608 5608 5608 5609 5610 5610 5612 5612 5612 5612 5612 5613 5612 5612 5611
5600 5600 5600 5600 5600 5599 5599 5599 5598 5598 5598 5597 5597 5596 5596 5595 5595 5595 5595 5595 5596 5595 5595 5595 5594 5594 5594 5594 5594 5594 5594 5594 5595 5596 5597 5597 5598 5597 5597 5597 5597 5597 5596
5589 5589 5589 5589 5588 5587 5587 5586 5586 5586 5585 5585 5585 5584 5583 5583 5582 5582 5582 5582 5582 5582 5582 5581 5581 5580 5580 5579 5580 5580 5580 5580 5581 5581 5582 5582 5583 5583 5582 5581 5581 5582 5583
5579 5578 5578 5577 5577 5576 5575 5574 5573 5573 5573 5572 5572 5571 5571 5570 5569 5569 5568 5568 5568 5568 5568 5567 5567 5567 5566 5566 5566 5566 5566 5566 5566 5567 5568 5568 5568 5569 5568 5568 5566 5566 5567
5568 5568 5567 5566 5566 5565 5564 5563 5562 5562 5561 5560 5560 5559 5559 5558 5557 5556 5555 5555 5554 5554 5554 5554 5554 5554 5553 5553 5553 5553 5552 5552 5552 5553 5554 5554 5553 5553 5552 5552 5551 5551 5551
5558 5557 5557 5556 5555 5554 5553 5552 5551 5550 5550 5549 5548 5547 5546 5546 5544 5543 5543 5542 5542 5542 5541 5541 5541 5541 5540 5540 5540 5540 5540 5539 5538 5538 5539 5539 5538 5538 5537 5537 5536 5536 5536
5548 5547 5546 5545 5545 5544 5543 5541 5540 5540 5539 5538 5537 5536 5534 5534 5532 5532 5531 5530 5530 5530 5529 5529 5528 5528 5527 5526 5526 5526 5526 5526 5525 5525 5525 5525 5524 5524 5523 5522 5522 5521 5521
5538 5537 5536 5535 5534 5533 5532 5531 5530 5529 5528 5527 5526 5525 5523 5522 5521 5520 5519 5518 5518 5517 5517 5516 5516 5515 5514 5514 5513 5513 5512 5512 5512 5512 5511 5511 5511 5510 5510 5509 5508 5508 5507
5528 5527 5526 5525 5524 5523 5522 5521 5520 5519 5518 5517 5515 5514 5512 5511 5510 5509 5507 5506 5506 5505 5505 5505 5504 5503 5502 5501 5501 5500 5499 5499 5499 5499 5499 5499 5499 5498 5498 5497 5496 5496 5495
5518 5517 5516 5515 5515 5514 5513 5512 5510 5509 5508 5507 5505 5504 5502 5501 5499 5498 5497 5495 5494 5494 5493 5493 5492 5491 5491 5490 5489 5488 5487 5487 5487 5487 5487 5487 5486 5486 5486 5485 5485 5484 5484
5508 5507 5507 5506 5505 5504 5503 5502 5501 5500 5498 5497 5495 5494 5492 5491 5489 5487 5486 5485 5484 5483 5482 5481 5481 5480 5480 5479 5478 5477 5477 5476 5476 5475 5475 5475 5475 5475 5474 5474 5474 5474 5474
5498 5498 5497 5496 5496 5495 5494 5493 5492 5490 5489 5487 5486 5484 5482 5481 5479 5477 5476 5475 5474 5473 5472 5471 5471 5470 5469 5468 5467 5467 5466 5465 5465 5464 5464 5464 5464 5464 5464 5464 5464 5463 5463
5489 5489 5488 5487 5486 5485 5485 5484 5482 5481 5480 5478 5476 5475 5473 5471 5469 5468 5466 5465 5464 5463 5463 5462 5461 5460 5459 5458 5458 5457 5456 5455 5454 5454 5454 5454 5453 5453 5453 5453 5453 5453 5453
5480 5480 5479 5478 5477 5477 5476 5475 5474 5473 5471 5469 5468 5466 5464 5462 5461 5459 5458 5457 5456 5455 5454 5453 5452 5451 5450 5449 5448 5447 5447 5446 5445 5444 5444 5444 5443 5443 5443 5443 5443 5442 5442
5471 5471 5470 5470 5469 5468 5467 5466 5466 5464 5463 5461 5459 5458 5456 5454 5453 5451 5450 5449 5448 5447 5446 5445 5444 5443 5442 5441 5440 5439 5438 5437 5436 5435 5435 5434 5434 5433 5433 5433 5433 5432 5432
5463 5463 5462 5461 5461 5460 5459 5458 5458 5456 5455 5454 5452 5450 5448 5447 5445 5444 5442 5441 5440 5439 5438 5437 5436 5435 5434 5433 5432 5431 5430 5429 5428 5427 5426 5425 5424 5424 5424 5423 5423 5423 5423
5455 5454 5454 5454 5453 5453 5452 5451 5450 5449 5447 5446 5445 5443 5441 5439 5438 5437 5435 5434 5433 5432 5430 5429 5428 5427 5426 5425 5424 5423 5422 5421 5419 5418 5417 5416 5415 5415 5414 5414 5414 5414 5414
5447 5447 5446 5446 5446 5445 5444 5443 5443 5441 5440 5439 5437 5435 5434 5432 5431 5429 5428 5427 5425 5424 5423 5422 5421 5419 5418 5417 5415 5414 5413 5412 5411 5410 5409 5408 5407 5406 5405 5405 5405 5404 5404
5439 5439 5439 5439 5438 5438 5437 5436 5435 5434 5433 5431 5430 5428 5426 5425 5424 5423 5421 5420 5418 5417 5416 5414 5413 5412 5410 5409 5408 5407 5405 5404 5403 5402 5401 5400 5399 5398 5397 5397 5396 5396 5396
5432 5432 5432 5431 5431 5430 5430 5429 5428 5427 5426 5424 5423 5421 5420 5419 5417 5416 5414 5413 5411 5410 5409 5407 5406 5405 5403 5402 5400 5400 5398 5397 5396 5395 5394 5393 5392 5391 5390 5389 5389 5388 5388
5426 5425 5425 5424 5424 5424 5423 5422 5421 5420 5419 5418 5416 5415 5414 5412 5411 5409 5408 5406 5405 5404 5402 5401 5399 5398 5397 5395 5394 5393 5392 5391 5390 5388 5387 5386 5385 5384 5383 5383 5382 5382 5381
5419 5419 5418 5418 5418 5417 5416 5415 5415 5413 5412 5411 5410 5409 5407 5406 5405 5403 5401 5400 5399 5397 5396 5395 5393 5392 5390 5389 5388 5387 5386 5384 5383 5382 5381 5380 5379 5378 5377 5377 5376 5376 5375
5413 5412 5412 5412 5411 5410 5410 5409 5408 5407 5406 5405 5403 5402 5401 5400 5398 5397 5395 5394 5393 5391 5390 5389 5387 5386 5384 5383 5382 5381 5380 5379 5377 5376 5375 5374 5373 5372 5372 5371 5370 5370 5370
Wind_Speed
42 42 42 43 43 44 45 45 45 45 46 46 48 47 47 48 49 49 49 49 49 49 50 51 52 52 52 52 53 53 53 53 52 52 52 52 52 52 51 51 52 52 51
42 42 43 43 43 44 45 45 44 45 46 46 47 48 47 48 49 50 50 50 50 50 50 50 52 53 53 53 53 53 53 53 53 52 52 52 52 52 52 52 52 52 51
42 43 43 43 44 45 45 45 45 45 45 45 47 48 48 48 49 49 50 51 52 52 51 51 52 53 53 53 53 53 53 53 53 52 51 51 51 52 52 53 53 52 52
42 42 43 44 44 44 45 45 45 45 44 44 45 47 48 48 49 49 50 51 51 52 51 51 51 52 52 52 52 51 51 51 51 51 51 51 51 51 52 52 52 52 53
41 42 42 43 43 43 44 45 46 46 45 44 44 44 46 47 48 49 50 51 51 51 50 51 51 50 49 49 50 50 50 50 50 51 51 51 51 51 51 52 52 52 53
39 40 41 42 43 43 43 44 45 46 46 46 46 45 46 46 47 48 49 50 50 50 49 49 50 49 49 48 47 48 49 50 50 51 51 51 51 51 51 52 52 51 51
38 39 40 41 42 42 42 42 43 44 44 45 46 46 46 46 46 47 47 48 48 48 47 47 47 48 48 47 47 47 47 48 49 50 50 50 50 50 50 51 51 51 51
36 37 38 39 40 40 40 40 40 41 42 43 44 45 45 46 46 45 45 45 44 45 45 45 46 47 47 47 47 47 47 47 48 49 49 49 49 50 50 50 50 50 50
35 36 36 37 37 38 38 38 39 39 40 41 42 42 43 43 44 44 44 44 44 44 44 45 44 45 45 46 46 46 46 46 47 47 48 49 49 49 49 49 49 48 48
35 35 35 35 36 36 37 37 37 38 38 39 39 40 40 40 40 41 41 42 43 43 43 43 44 44 45 45 46 46 47 47 46 46 46 45 45 46 46 46 46 46 45
34 34 34 34 34 34 35 35 35 36 37 37 37 38 38 38 39 39 40 40 41 41 41 42 43 44 44 44 44 45 45 45 46 46 45 44 43 43 43 43 43 43 43
33 33 33 33 34 34 34 34 35 35 35 35 35 35 36 36 37 37 38 39 39 39 40 40 41 41 41 41 41 42 43 43 43 43 43 43 42 41 40 40 40 40 40
33 33 33 33 33 33 33 33 33 33 33 33 34 35 35 35 36 36 37 37 38 38 38 38 38 39 39 39 39 39 39 39 39 39 40 40 39 39 39 39 39 38 37
32 32 32 32 32 32 32 31 32 32 32 33 33 34 34 35 36 35 35 36 36 36 36 36 35 35 36 36 37 36 36 36 37 37 36 36 36 36 36 36 35 35 35
31 30 31 31 31 31 31 31 31 31 31 31 31 32 32 33 34 34 34 34 33 33 33 33 33 33 33 34 34 34 34 34 34 34 34 34 34 35 35 34 34 34 34
30 30 29 29 29 29 29 30 30 30 30 30 30 31 31 31 31 31 31 31 30 30 30 30 30 30 31 31 31 31 30 31 31 32 32 32 32 33 33 33 34 33 33
29 29 29 28 28 28 28 28 28 29 29 29 30 29 29 29 29 29 29 28 28 29 29 29 29 28 28 29 28 28 28 29 29 29 29 29 30 30 30 31 31 31 31
28 28 28 27 27 27 27 27 27 28 28 28 28 28 28 28 28 28 27 27 27 27 28 28 27 27 27 27 27 27 27 27 28 28 28 28 28 29 29 29 29 29 29
26 26 26 26 26 26 26 26 27 27 27 27 27 27 27 27 27 27 26 26 26 26 26 26 26 26 26 26 26 26 27 27 27 27 27 28 28 28 29 29 29 28 28
25 25 25 25 25 25 25 25 25 25 25 25 26 26 26 26 25 25 25 25 25 25 25 25 25 25 25 26 26 26 27 27 27 27 27 28 28 28 28 28 27 27 27
25 25 25 25 25 25 24 24 24 24 24 25 25 25 25 25 24 24 24 24 23 23 24 24 24 24 25 26 25 25 25 25 25 25 25 26 26 26 26 26 26 26 26
23 24 24 24 24 24 24 24 23 24 24 24 24 24 24 23 23 23 23 23 23 23 23 23 23 24 24 24 24 24 24 23 23 23 23 23 23 23 24 24 24 24 24
23 23 23 23 23 23 23 23 23 23 23 23 23 22 22 22 22 22 22 22 22 22 23 23 23 22 22 22 23 23 22 22 22 22 21 22 22 22 22 22 23 23 23
22 22 22 22 22 22 22 22 23 23 23 22 22 22 21 21 21 21 21 21 21 21 22 22 22 21 21 21 21 21 21 21 20 20 20 20 21 21 21 20 20 20 20
20 20 21 21 21 21 22 22 22 22 22 22 21 21 21 21 21 21 20 20 21 21 21 21 21 21 21 20 20 20 20 20 19 19 20 20 20 20 19 19 18 18 17
20 20 20 21 21 21 21 22 21 21 21 21 21 20 21 20 20 20 20 20 20 20 20 20 20 20 19 19 19 19 19 19 19 19 19 19 19 18 18 17 17 16 16
Wind_Direction
261 263 262 262 262 263 264 265 267 268 267 267 266 266 265 265 265 266 267 267 269 269 269 269 268 269 269 269 269 270 270 270 269 268 268 268 268 269 269 270 270 271 272
263 264 264 264 264 264 265 266 267 268 267 267 266 266 266 266 267 268 268 268 269 269 270 270 269 268 268 269 270 270 269 269 269 269 269 269 269 270 269 269 269 271 272
265 265 266 267 267 267 267 268 268 269 269 268 266 265 266 267 267 268 268 268 270 270 270 271 271 269 268 269 269 269 269 269 269 270 270 270 269 270 269 269 269 270 272
267 267 268 268 269 270 269 269 269 270 270 269 267 266 266 267 267 268 268 269 271 271 271 272 272 270 269 268 269 270 270 270 270 270 269 269 270 270 270 270 270 271 272
269 268 269 270 271 272 270 270 270 270 270 269 269 268 268 269 269 269 269 270 271 271 272 272 271 271 270 269 269 269 270 270 270 270 269 269 270 270 270 271 271 271 272
269 270 271 271 272 273 273 272 271 271 270 269 269 269 269 270 271 270 270 271 271 272 272 272 271 271 270 270 270 270 270 270 270 270 270 270 270 271 271 271 272 272 273
271 272 273 273 273 274 275 275 273 272 272 271 271 271 271 271 272 273 272 272 272 272 271 272 271 270 270 271 270 270 270 270 270 270 270 271 271 272 272 273 273 273 274
272 273 273 273 273 274 275 276 275 274 273 273 272 273 273 273 273 273 273 273 273 272 272 272 272 271 271 271 271 271 270 270 271 271 271 271 272 272 272 274 274 274 275
273 273 273 274 275 276 276 276 277 276 275 275 275 275 274 274 273 273 274 275 274 273 272 272 272 272 271 272 272 271 271 271 271 271 271 272 272 272 273 274 275 275 274
273 273 273 274 275 276 277 278 278 278 277 277 277 277 276 274 274 274 275 277 276 275 273 273 273 273 273 273 274 273 272 272 272 272 272 273 273 274 275 275 276 276 276
273 273 274 275 276 277 278 278 279 279 279 279 279 279 278 277 276 277 277 277 277 276 275 274 274 274 275 275 274 274 274 273 272 272 272 273 274 275 276 275 276 277 278
272 274 275 276 276 276 278 279 280 281 281 281 281 280 280 279 278 278 278 277 277 276 276 276 275 275 275 275 276 276 275 274 273 273 273 273 274 275 276 276 276 277 278
273 273 274 275 276 277 278 279 280 281 283 283 282 282 281 280 280 280 279 277 277 277 276 275 275 275 275 276 276 276 276 275 274 274 273 274 274 274 275 276 276 277 278
273 274 274 276 277 278 279 279 281 283 284 285 285 283 283 282 281 280 278 278 278 277 276 275 275 275 275 276 276 276 277 276 275 274 274 273 273 274 274 274 275 276 277
272 273 275 277 278 278 279 280 282 284 286 286 286 285 284 284 282 281 280 279 278 277 276 275 274 275 276 276 276 276 277 277 276 274 273 273 273 273 273 273 274 276 276
273 274 275 277 278 279 280 281 283 284 285 287 287 287 286 285 283 282 281 280 279 278 278 277 276 276 277 277 277 277 278 277 277 276 275 274 273 273 273 273 274 275 275
274 274 275 277 278 279 281 282 283 284 286 287 288 288 288 286 285 283 282 281 280 280 280 279 279 278 278 278 278 278 278 279 279 278 277 275 275 274 273 274 274 274 275
274 275 275 276 278 280 281 282 282 284 285 286 288 289 289 287 285 284 282 281 282 283 283 282 280 279 278 278 279 279 279 280 279 279 278 278 277 276 275 275 275 275 275
274 275 276 278 280 281 282 283 284 285 286 287 288 289 289 287 286 284 283 282 283 284 284 283 282 281 281 280 280 280 281 281 280 280 279 280 279 277 276 276 276 275 274
273 274 276 278 280 281 283 284 285 285 286 287 288 288 287 286 285 285 285 285 284 283 283 283 283 283 283 282 283 282 282 281 281 281 280 281 280 278 277 277 277 275 274
274 276 278 278 279 280 282 283 284 285 286 288 289 288 287 287 286 285 285 286 285 284 283 283 284 285 285 285 284 285 285 285 284 284 282 281 280 279 278 277 277 276 275
276 278 279 279 280 280 282 282 283 285 288 289 289 288 288 288 288 286 285 286 285 285 285 285 285 287 287 286 286 287 287 286 285 286 285 284 284 282 280 279 278 276 275
277 279 279 279 279 280 282 283 284 287 288 290 289 288 289 289 289 288 288 287 287 287 287 287 287 289 290 289 288 288 287 287 287 287 287 286 287 287 285 283 281 280 277
277 279 280 280 280 282 283 283 285 287 289 290 289 289 290 290 290 291 290 289 288 288 288 289 289 290 291 291 289 288 287 288 289 290 290 289 289 288 286 285 283 281 279
278 280 280 280 282 283 284 284 285 286 287 289 289 289 289 290 291 291 290 291 290 289 289 289 290 290 290 290 290 289 288 289 290 291 291 291 290 288 285 284 283 282 280
280 280 281 282 283 284 285 285 285 286 287 289 289 289 289 290 291 291 291 291 291 291 291 291 291 291 290 289 290 291 291 290 291 291 291 290 289 287 286 284 282 281 278